CAPE
2773 2710 2957 2794 2600 2234 1682 1153 1194 1610 1298 1285 1264 883 1054 1175 1203 992 1002 1020 913 710 690 805 609 580 293 170 103 55 27 27 104 91 133 66 91 76 61 44 8 0 0
2723 2328 2077 393 1947 1681 1539 1603 964 1597 1496 1254 1255 968 1439 1509 1037 1040 957 892 796 756 653 590 652 773 613 512 353 207 222 174 149 41 221 234 63 44 39 98 39 20 0
393 643 123 23 0 0 354 966 1490 1429 1603 1316 1260 1339 1045 1387 1076 930 874 950 976 780 660 593 496 351 403 246 325 292 143 197 338 218 131 137 74 48 0 1 1 1 0
307 420 95 23 11 0 17 269 756 1132 1489 1282 1501 1415 1103 1041 1342 1066 914 937 924 912 808 590 445 498 368 324 139 124 119 139 228 166 273 162 15 41 0 0 0 1 0
147 106 100 3 13 11 0 0 339 1354 1323 1123 1131 1375 1306 1336 1026 1277 1040 922 979 771 707 613 528 571 343 270 339 143 196 248 150 135 125 91 60 9 0 0 0 0 0
375 93 9 0 0 0 0 0 845 1284 1368 1258 1235 1132 1249 1161 870 870 937 949 889 1063 870 672 527 562 474 213 110 167 178 142 107 82 0 0 58 45 0 1 1 1 0
206 503 102 20 14 43 141 389 993 1245 1468 1330 1087 1124 1249 1170 1054 639 746 1012 1130 1008 889 722 510 641 471 374 97 14 0 31 78 109 75 50 23 86 54 1 0 1 1
471 715 557 192 89 14 5 1 572 952 1103 924 792 925 1280 1229 996 498 525 686 796 861 974 960 591 443 478 414 437 117 45 17 0 0 0 23 177 198 146 12 0 0 1
641 596 583 612 368 165 23 279 594 631 343 593 1007 1230 1236 919 677 590 546 826 832 784 1022 863 778 546 662 337 246 323 208 160 74 7 0 1 130 253 206 2 1 2 0
202 282 642 707 327 119 308 285 149 136 170 213 289 338 758 1019 1018 421 362 844 830 883 1061 1003 763 733 471 397 277 226 230 263 155 7 0 0 0 48 96 16 0 0 0
17 35 28 137 287 396 342 354 76 51 128 276 457 529 769 1041 1456 564 251 761 999 1126 802 732 766 402 338 307 272 396 316 177 275 164 131 68 1 27 59 86 0 0 0
38 1 0 0 1 42 169 346 401 403 328 452 449 441 488 660 604 585 478 315 589 673 842 783 543 245 275 195 136 194 213 120 177 136 156 153 46 43 32 35 72 0 0
1 18 38 0 0 2 27 74 117 195 412 485 497 432 398 424 519 413 295 261 184 173 249 206 31 4 1 1 64 109 42 67 128 137 127 102 145 115 104 94 137 122 71
0 0 0 8 0 2 25 10 28 63 110 118 138 141 180 175 116 0 4 79 5 34 34 54 31 0 0 0 0 0 39 87 99 131 88 117 190 99 120 221 112 144 130
0 0 1 1 2 102 16 0 0 3 0 2 8 48 38 20 42 0 0 0 0 0 0 0 12 11 0 0 0 1 8 58 78 80 105 94 113 87 102 92 140 210 122
0 0 0 0 0 0 28 30 2 0 2 0 0 0 0 0 0 0 0 0 0 0 0 0 3 3 8 3 0 4 8 18 64 64 77 75 49 64 110 109 94 91 41
0 0 0 0 0 0 0 15 27 16 2 0 0 0 0 0 0 0 0 0 0 0 0 0 0 0 0 2 2 29 31 7 16 27 26 52 70 60 61 55 60 61 51
0 0 0 3 0 0 0 5 13 11 18 8 0 0 0 0 0 0 0 0 0 0 0 0 0 0 2 10 10 27 16 6 7 1 22 27 53 40 68 65 75 73 49
0 0 0 0 0 0 0 0 6 35 8 1 7 0 0 0 0 0 0 0 2 1 0 0 1 2 4 3 14 20 22 6 0 15 15 9 0 32 37 33 21 48 36
0 0 0 0 0 0 0 24 41 116 24 27 15 4 0 0 0 0 0 0 2 2 1 2 1 2 5 9 6 1 0 0 0 2 4 3 1 1 0 3 8 9 11
0 0 7 3 19 21 34 41 75 148 128 47 11 0 0 0 0 2 2 1 1 1 1 1 1 0 0 0 1 1 1 1 1 0 1 0 1 0 0 0 1 4 16
0 0 1 4 0 4 6 43 137 154 151 16 6 0 0 0 0 0 1 1 2 2 2 1 1 1 2 2 2 2 2 1 0 0 0 0 0 0 0 0 14 38 29
0 0 0 1 0 19 46 39 31 111 174 11 0 0 1 1 0 0 0 0 0 1 0 0 1 1 1 0 0 2 1 0 1 0 1 5 2 0 11 28 26 31 23
0 0 0 6 5 16 38 30 49 63 17 4 3 0 1 0 0 0 0 0 1 0 0 4 3 2 0 0 0 0 2 1 1 22 26 10 9 12 26 15 5 1 0
0 7 0 12 2 2 21 148 208 221 86 75 7 2 1 0 1 0 0 0 2 2 0 4 0 9 19 17 22 5 0 14 16 13 0 0 0 0 0 0 0 0 0
1 13 20 29 0 1 14 129 172 306 239 182 183 8 1 1 1 1 2 0 0 0 0 0 0 0 0 0 0 0 0 0 0 0 0 0 0 0 0 0 0 0 0
CIN
-56 -64 -10 -1 -5 -9 -11 -57 -20 -3 -8 -8 -3 -20 -20 -9 -5 -23 -10 -3 -5 -8 -5 -2 -6 -3 -26 -40 -41 -58 -65 -41 -4 -19 -14 -26 -35 -41 -13 -15 -23 0 0
-55 -40 -7 -201 -7 -5 -5 -5 -21 -7 -13 -10 -11 -15 -3 -6 -21 -20 -37 -11 -13 -9 -7 -4 -3 -3 -6 -3 -12 -30 -53 -18 -6 -32 -6 -4 -14 -8 -4 0 0 -3 0
-85 -186 -375 -406 0 0 -15 -5 -5 -6 -8 -6 -10 -4 -9 -2 -12 -29 -34 -11 -8 -27 -26 -10 -9 -8 -5 -19 -12 -4 -11 -11 -5 -6 -13 -11 -8 -22 0 0 0 0 0
-225 -212 -322 -139 -314 0 -36 -43 -32 -5 -7 -8 -5 -7 -19 -7 -2 -19 -34 -16 -13 -10 -21 -29 -14 -11 -12 -9 -14 -16 -20 -14 -9 -8 -2 -5 -7 -32 0 0 0 0 0
-270 -279 -274 -395 -521 -566 0 0 -150 -37 -19 -26 -9 -9 -3 -3 -2 -23 -20 -31 -17 -53 -65 -35 -24 -10 -10 -15 -22 -22 -13 -9 -9 -5 -5 -9 -5 -3 0 0 0 0 0
-208 -322 -379 -38 0 0 0 -3 -45 -44 -88 -24 -9 -13 -6 -3 -17 -13 -21 -43 -34 -27 -57 -45 -25 -19 -17 -22 -19 -22 -16 -20 -14 -6 0 0 -6 -20 0 -2 0 0 0
-198 -56 -226 -249 -235 -231 -113 -43 -14 -14 -16 -15 -15 -16 -19 -21 -16 -45 -34 -30 -21 -37 -86 -93 -60 -11 -20 -31 -45 -42 0 -49 -35 -15 -13 -9 -4 -10 -36 -1 0 0 0
-73 -7 -20 -123 -195 -280 -75 -51 -37 -34 -22 -20 -14 -7 -12 -28 -26 -68 -58 -45 -39 -34 -25 -51 -69 -47 -10 -14 -11 -43 -93 -60 0 0 0 -36 -12 -8 -17 -56 0 0 0
-26 -24 -12 -14 -28 -47 -138 -68 -34 -45 -90 -39 -21 -21 -18 -16 -46 -66 -64 -52 -51 -68 -54 -47 -49 -46 -10 -21 -34 -32 -27 -38 -73 -100 0 -6 -15 -10 -10 -56 0 0 0
-103 -52 -8 0 -8 -24 -20 -16 -30 -80 -51 -29 -40 -42 -30 -31 -26 -70 -70 -44 -58 -53 -43 -41 -49 -24 -49 -43 -57 -25 -14 -16 -16 -12 0 0 0 -31 -10 -104 0 0 0
-95 -154 -185 -92 -44 -4 -3 -11 -94 -84 -107 -95 -41 -58 -38 -41 -13 -63 -104 -51 -33 -13 -5 -14 -47 -72 -44 -63 -47 -15 -30 -15 -7 -12 -19 -26 -8 -55 -52 -6 0 0 0
-176 -105 0 0 -65 -111 -65 -45 -45 -32 -42 -41 -59 -80 -78 -37 -34 -37 -52 -103 -33 -37 -4 -3 -6 -42 -42 -44 -57 -42 -25 -22 -6 -12 -4 -6 -54 -59 -62 -49 -5 0 0
-44 -161 -142 0 0 -58 -132 -69 -42 -28 -2 -2 -2 -20 -38 -11 -8 -21 -48 -95 -104 -88 -46 -46 -135 -27 -83 -3 -69 -42 -58 -25 -8 -7 -11 -17 -11 -25 -24 -25 -7 -2 -4
0 0 0 -77 0 -51 -140 -152 -128 -100 -58 -51 -45 -67 -51 -48 -106 0 -227 -155 -16 -102 -79 -65 -77 0 0 0 0 0 -66 -48 -20 -12 -24 -30 -15 -13 -8 -8 -14 -3 -2
0 0 -1 -2 -9 -21 -58 -4 0 -53 0 -94 -91 -117 -124 -121 -56 0 0 0 0 0 0 -2 -7 -5 -1 0 0 -37 -78 -47 -27 -18 -18 -14 -14 -25 -30 -29 -19 -2 -8
0 0 0 0 0 0 -26 -63 -23 0 -36 0 0 0 0 0 0 0 0 0 0 0 0 0 -23 -6 -4 -7 0 -1 -60 -33 -71 -39 -18 -20 -35 -10 -36 -24 -24 -21 -22
0 0 0 0 0 0 0 -2 -9 -21 -53 -63 0 0 0 0 0 0 0 0 0 0 0 0 0 0 0 -5 -4 -3 -5 -18 -73 -42 -29 -24 -37 -31 -26 -16 -15 -22 -15
0 0 -1 -1 0 0 0 -3 -1 -4 -2 -4 0 0 0 0 0 0 0 0 0 0 0 0 0 0 0 0 -4 -1 -3 -4 -26 -57 -25 -20 -13 -33 -26 -22 -17 -15 -33
0 -1 0 0 0 0 0 0 -6 -11 -12 -2 -4 -3 0 0 0 0 0 0 0 0 0 0 0 0 -1 -3 0 -2 -1 -5 -5 -12 -20 -34 0 -64 -80 -77 -43 -45 -63
0 0 0 0 0 0 0 -6 -12 -9 -19 -9 0 -3 0 0 -1 0 0 0 0 0 0 0 0 -1 -6 -3 -2 -13 0 0 0 -4 -40 -22 -8 -59 -16 -28 -52 -59 -64
0 0 -11 -13 -3 -23 -17 -18 -11 -13 -13 -17 -10 0 0 0 0 0 0 0 0 0 0 0 0 0 0 0 0 0 0 0 0 0 0 0 -5 0 -9 -1 -63 -71 -24
0 0 -1 -2 0 -1 -35 -17 -7 -7 0 -21 -8 0 0 0 0 0 0 0 0 0 0 0 0 0 0 0 0 0 0 0 0 0 0 0 0 -23 -3 -23 -27 -5 -26
0 0 0 -1 -1 -22 -15 -3 -17 -3 -1 -10 0 0 0 0 0 0 0 0 0 0 0 0 0 0 0 0 0 0 0 0 -8 0 -10 -25 -22 -18 -27 -30 -20 -8 -13
0 -3 0 -12 -7 -11 -73 -52 -23 -14 -5 -4 0 0 0 0 0 0 0 0 0 0 0 -21 -20 -21 0 0 0 -1 -11 -1 -7 -6 -13 -15 -17 -24 -8 -6 -12 -2 0
0 -3 0 -2 -17 -15 -1 -10 -8 -5 -20 -10 -16 -20 0 0 0 0 0 0 -7 -26 0 -8 -1 -12 -4 -9 -5 -33 -40 -7 -8 -34 -45 0 0 0 0 0 0 0 0
-1 -3 -3 -137 -2 -3 -2 -39 -15 -8 -10 -5 0 -18 0 0 0 0 0 0 0 0 0 0 0 0 0 0 0 0 0 0 0 0 0 0 0 0 0 0 0 0 0
Wind_Speed
20 20 22 20 19 17 14 9 7 7 4 2 2 4 5 4 4 5 6 9 5 7 10 5 5 5 7 5 9 13 20 21 23 27 22 19 17 15 14 14 12 12 14
20 18 20 30 25 26 19 11 8 11 8 7 5 3 4 3 4 4 5 6 5 7 10 15 5 6 5 5 4 3 2 5 21 25 18 15 12 11 12 11 13 13 11
11 9 12 18 16 19 9 21 11 15 9 9 8 5 3 2 1 3 3 5 10 7 9 10 5 8 8 6 4 6 1 8 11 16 19 16 14 11 12 13 11 11 10
17 11 13 19 16 14 14 24 22 26 14 14 15 11 6 3 5 1 2 4 7 11 10 11 5 5 8 7 8 6 6 6 10 14 17 16 11 10 11 10 9 9 9
21 20 14 11 11 7 11 19 11 15 15 12 19 16 13 11 9 4 4 4 5 7 9 9 10 12 7 12 10 11 11 10 10 12 11 11 9 9 8 9 8 8 9
18 19 19 15 11 7 15 11 10 12 10 11 15 19 17 15 13 6 5 6 5 7 10 10 6 14 11 10 9 9 12 13 14 16 14 13 7 5 7 7 8 8 8
17 14 14 13 2 7 5 4 6 8 14 15 19 18 22 23 23 12 7 9 7 4 6 8 7 5 6 12 13 11 13 15 13 16 16 14 16 6 7 9 8 7 8
15 15 12 6 3 6 4 12 4 4 7 8 15 16 19 20 19 12 11 14 14 14 13 12 6 5 11 14 8 7 10 14 9 11 11 16 17 15 9 9 9 9 11
17 17 18 18 17 11 14 23 10 4 4 12 10 18 22 31 24 15 17 18 18 13 11 9 6 6 7 9 9 8 10 15 15 11 12 13 13 11 7 9 9 8 12
20 21 21 20 18 16 18 19 15 18 17 19 22 26 28 33 31 23 21 21 20 17 15 10 9 9 8 7 9 9 11 15 13 13 13 14 12 12 7 6 6 6 9
20 21 20 20 19 19 18 19 22 25 22 25 26 26 29 31 32 27 26 28 26 24 16 14 12 11 11 10 10 10 11 12 10 10 12 11 11 8 9 8 5 3 5
20 20 20 20 21 22 22 23 22 22 23 27 28 29 30 34 39 39 38 33 32 29 28 26 26 21 13 13 12 12 12 14 13 13 14 12 9 7 6 8 7 3 1
23 22 22 21 21 22 21 21 23 23 23 24 23 21 24 25 26 27 27 21 17 17 24 28 29 33 33 25 16 15 13 15 14 13 12 14 13 10 7 6 6 4 6
24 24 24 23 20 19 20 22 23 24 26 29 30 30 32 32 29 27 24 27 32 33 28 28 31 34 32 32 28 20 17 15 15 14 13 12 11 9 10 8 10 10 12
25 25 25 23 20 17 21 22 24 26 25 28 32 34 36 37 33 32 33 33 30 28 31 29 28 29 27 29 29 22 18 16 14 14 13 11 11 11 9 8 10 9 10
26 25 26 26 26 26 20 20 17 19 22 27 27 28 30 32 35 37 36 31 31 29 30 30 30 30 29 27 22 17 17 17 15 15 12 10 9 10 10 9 10 10 8
24 24 24 23 24 26 26 26 23 26 21 23 25 24 26 30 35 36 38 36 30 25 25 25 25 26 24 21 19 17 16 15 16 16 13 11 10 11 12 10 11 11 12
26 26 22 25 27 26 25 25 25 27 27 28 24 24 27 32 35 35 37 34 30 23 23 24 26 24 22 20 19 16 14 14 14 12 12 11 10 8 8 9 9 11 11
20 22 23 24 23 23 22 21 24 25 25 28 27 25 28 33 33 32 30 27 28 26 24 25 23 22 19 18 18 16 14 12 11 9 7 4 5 4 5 7 8 9 14
23 20 17 18 19 20 18 17 18 21 26 27 27 28 30 32 32 32 30 28 28 28 27 24 23 22 20 15 11 8 7 4 9 7 8 7 11 5 5 8 7 10 13
23 25 26 25 28 27 26 24 21 21 24 23 24 24 27 28 28 28 27 27 27 27 26 22 19 18 13 10 8 6 6 6 8 8 8 5 6 4 5 8 9 9 11
22 27 26 26 27 27 26 26 25 25 24 22 20 24 25 26 25 24 25 25 25 24 22 18 15 15 13 12 7 6 4 4 4 5 5 7 7 8 6 8 9 8 7
21 25 25 26 27 29 27 26 26 26 24 23 24 23 23 24 24 21 22 24 22 20 19 17 12 11 9 7 4 2 2 1 3 2 5 6 6 5 8 10 10 10 8
21 20 24 21 25 26 26 26 25 23 23 21 21 22 22 21 20 19 21 20 17 17 17 15 12 11 9 7 7 5 4 5 6 6 5 7 4 4 3 3 5 6 7
19 19 24 21 26 27 23 23 23 22 20 17 18 20 21 21 20 18 16 15 16 14 16 15 13 11 9 8 7 7 6 5 5 4 3 3 2 2 6 7 9 4 3
18 15 19 17 22 21 22 19 19 19 18 18 18 16 18 21 20 18 15 13 14 15 15 14 13 11 9 9 9 7 5 5 3 4 5 4 5 7 8 8 6 4 4
Wind_Direction
228 233 242 247 241 245 245 230 269 299 301 42 84 68 97 65 61 42 45 355 56 31 155 105 51 44 26 35 337 309 288 287 289 289 305 313 314 324 322 320 325 325 324
235 241 255 274 244 263 229 247 252 283 288 279 300 323 117 92 90 54 61 40 37 13 352 331 32 47 66 59 51 92 81 281 294 292 312 325 332 336 331 334 333 336 339
292 280 259 275 281 335 296 251 272 277 279 282 278 281 291 338 66 77 40 20 341 354 351 348 11 1 2 17 38 354 26 334 324 314 312 321 324 337 335 337 340 345 348
321 313 292 282 289 297 270 284 281 269 277 276 277 276 278 277 303 284 343 352 345 332 336 338 349 349 347 350 349 347 344 338 328 321 318 320 327 330 339 340 342 344 345
311 309 309 293 283 251 193 191 230 257 271 274 273 272 278 284 291 288 299 333 338 340 341 342 331 323 330 333 335 337 329 325 327 327 327 330 327 325 327 340 336 341 343
328 320 309 297 296 212 189 216 251 229 244 263 269 271 272 280 285 267 280 306 320 329 338 344 345 321 321 320 320 324 328 321 317 317 319 323 330 323 326 327 330 329 329
336 352 321 319 354 276 274 174 182 209 269 268 270 273 271 271 277 274 249 291 308 318 339 343 344 334 317 317 311 311 313 308 316 317 319 321 326 326 325 328 319 314 319
352 359 5 59 352 264 223 182 213 285 277 193 276 278 278 277 274 266 270 289 299 305 313 320 327 317 325 327 322 314 310 307 308 309 314 317 319 320 319 324 325 318 318
345 334 321 311 313 320 283 273 302 242 279 284 275 284 286 273 277 268 275 287 293 299 306 303 297 292 304 318 319 314 308 308 313 316 322 326 328 328 335 331 325 321 312
314 317 310 311 307 308 287 278 294 287 290 290 288 287 284 275 278 279 281 284 290 296 298 290 282 289 284 271 293 293 298 302 304 310 313 316 324 322 320 320 321 315 316
333 326 318 312 316 316 307 297 291 286 298 294 292 289 286 283 283 284 284 283 288 294 293 295 288 267 262 273 267 278 289 298 292 294 302 309 308 312 308 308 311 307 297
342 344 328 324 320 314 311 298 303 303 296 294 294 294 289 285 281 278 276 280 285 290 294 299 301 301 264 261 259 266 277 290 291 293 291 295 297 291 298 297 296 293 259
331 330 330 337 333 322 317 315 306 307 303 302 302 305 302 299 295 282 277 281 281 285 294 293 295 295 295 293 274 277 273 282 280 280 278 279 287 289 295 290 295 286 309
333 325 321 323 335 318 334 329 321 315 308 297 291 292 286 281 292 296 299 294 289 289 294 295 296 293 290 290 291 281 273 267 264 266 271 270 274 267 285 279 292 293 298
326 321 325 325 326 328 324 326 319 312 312 301 289 283 280 277 286 293 292 294 300 302 297 298 298 294 293 292 285 280 267 262 256 258 261 258 263 259 253 262 277 288 293
330 334 327 325 315 312 324 327 330 329 322 311 315 312 304 300 297 294 296 301 301 301 296 294 291 291 294 295 294 277 264 244 255 253 260 257 255 240 252 251 267 278 282
343 336 335 336 329 321 315 316 323 321 323 322 319 320 320 317 307 302 297 299 301 298 296 296 297 297 298 292 290 279 270 258 270 258 250 249 244 253 256 257 272 275 282
336 334 346 338 328 323 321 322 325 323 316 318 325 324 322 318 315 311 302 300 298 296 294 296 298 299 297 292 291 282 269 265 257 244 261 263 239 225 240 264 273 268 275
3 357 353 348 343 337 331 328 324 327 326 323 323 327 328 324 321 321 318 310 302 300 298 298 301 301 298 294 294 287 273 260 243 230 224 221 190 211 254 272 275 281 279
354 358 4 4 359 356 354 348 340 335 328 324 323 327 328 328 325 322 323 315 309 302 301 300 302 300 298 295 298 286 287 219 179 202 241 256 253 248 257 263 270 279 284
352 344 346 343 342 345 349 347 346 343 338 337 333 335 335 334 332 331 332 331 323 312 304 301 305 306 301 288 281 263 224 212 228 254 249 227 268 273 287 269 285 289 284
355 348 345 343 338 340 338 338 337 335 337 339 344 338 336 334 333 336 336 337 335 334 325 315 314 306 309 305 276 252 226 191 214 226 233 260 278 285 284 296 291 283 282
355 357 351 345 341 334 336 336 332 332 333 333 331 332 332 333 336 339 340 339 338 343 347 347 345 342 342 356 355 341 139 180 240 246 277 301 301 292 281 282 279 277 282
353 352 351 350 345 340 339 334 335 336 331 332 332 334 338 338 342 342 339 343 345 349 349 353 350 353 351 322 331 351 326 287 302 309 311 300 318 311 300 288 282 279 282
351 353 345 345 340 331 340 342 338 341 342 347 345 339 334 333 333 336 339 344 342 354 355 354 360 347 343 2 337 329 320 314 312 307 335 333 318 338 299 292 284 312 333
353 356 356 357 347 344 340 347 346 346 344 339 338 346 342 331 325 326 326 322 332 339 352 360 345 341 340 346 337 342 326 319 331 310 311 317 306 292 289 292 310 1 10